This is the latest recevied weather packets stored in our database for station/object KD0ISH. If no packets are shown the sender has not sent any weather packets the latest 10 day(s).
| Time | Temp. | Humidity | Pressure | Rain* | Wind** | Luminosity | Snow |
|---|---|---|---|---|---|---|---|
| 1778000448 | 11.11° C | 76% | 1011.6 hPa | 0 mm | - | 71 W/m² | - |
| 1778000143 | 11.11° C | 77% | 1011.7 hPa | 0 mm | - | 62 W/m² | - |
| 1777999839 | 11.11° C | 78% | 1011.4 hPa | 0 mm | - | 72 W/m² | - |
| 1777999535 | 11.11° C | 78% | 1011.5 hPa | 0 mm | - | 76 W/m² | - |
| 1777999232 | 11.11° C | 79% | 1011.3 hPa | 0 mm | - | 96 W/m² | - |
| 1777998931 | 11.11° C | 78% | 1011.3 hPa | 0 mm | - | 74 W/m² | - |
| 1777998628 | 11.11° C | 79% | 1011.3 hPa | 0 mm | - | 91 W/m² | - |
| 1777998321 | 10.56° C | 81% | 1011.2 hPa | 0 mm | - | 92 W/m² | - |
| 1777998018 | 11.11° C | 83% | 1011 hPa | 0 mm | - | 80 W/m² | - |
| 1777997715 | 11.11° C | 83% | 1011 hPa | 0 mm | - | 85 W/m² | - |
| 1777997412 | 11.11° C | 83% | 1010.8 hPa | 0 mm | - | 98 W/m² | - |
| 1777997110 | 11.11° C | 83% | 1010.8 hPa | 0 mm | - | 195 W/m² | - |
| 1777996807 | 10.56° C | 83% | 1010.8 hPa | 0 mm | - | 216 W/m² | - |
| 1777996503 | 10.56° C | 83% | 1010.7 hPa | 0 mm | - | 103 W/m² | - |
| 1777996200 | 10.56° C | 84% | 1011.2 hPa | 0 mm | - | 57 W/m² | - |
| 1777995896 | 10.56° C | 84% | 1011.2 hPa | 0 mm | - | 56 W/m² | - |
| 1777995592 | 11.11° C | 83% | 1011.4 hPa | 0 mm | - | 52 W/m² | - |
| 1777995290 | 11.11° C | 83% | 1011.3 hPa | 0 mm | - | 74 W/m² | - |
| 1777994986 | 11.11° C | 82% | 1011.1 hPa | 0 mm | - | 80 W/m² | - |
| 1777994684 | 11.11° C | 82% | 1011.7 hPa | 0 mm | - | 50 W/m² | - |
| 1777994384 | 11.11° C | 82% | 1011.4 hPa | 0 mm | - | 74 W/m² | - |
| 1777994080 | 11.11° C | 82% | 1011.2 hPa | 0 mm | - | 55 W/m² | - |
| 1777993777 | 11.11° C | 82% | 1011.1 hPa | 0 mm | - | 66 W/m² | - |
| 1777993474 | 11.67° C | 82% | 1011.8 hPa | 0 mm | - | 32 W/m² | - |
| 1777993173 | 11.67° C | 82% | 1012.1 hPa | 0 mm | - | 23 W/m² | - |
* Rain latest hour (hover to see other rain measurements)
** Current wind speed in m/s (hover to see current wind gust speed)